LEMUR-2-TOMHENDERSON (43561 NORAD) Tracking and Keplerian Element Data

This shows tracking and keplerian element data for the satellite.

Feedback or suggestion? Click here.




ElementValue
Catalog43561
NameLEMUR-2-TOMHENDERSON
Epoch Orbit5591
Epoch Day201.00398082
Epoch Year2019
RAAN265.4243
Inclination51.6421
Eccentricity0.0008142
Argument of Perigee195.4078
Mean Anonmoly164.6655
Mean Motion15.29384553
Decay Rate6.96E-06
L11 43561U 18046H 19201.00398082 .00000696 00000-0 36556-4 0 9991
L22 43561 51.6421 265.4243 0008142 195.4078 164.6655 15.29384553 55913

Live tracking and technical data element details for LEMUR-2-TOMHENDERSON (NORAD 43561). LEMUR-2-TOMHENDERSON can be tracked NOW for your location showing map with azimuth and elevation plus other details from your city location.

Track the satellite on the map from your city or location and see movement details for azimuth, elevation, latitude, longitude, range, height, and movement on the map or in text.







IsCatalogInMostPopularTable: catalog: 43561, numindb: 188
Update: records affected: 1



GetName: 43561 LEMUR-2-TOMHENDERSON

Hit Count: updated at: Sat, 20 Jul 2019 21:51:23 GMT